Location: Colonia Mina de C?rbuni
(46.1667°N, 22.7167°E)
Time: 22:12:29
(UTC+00:00)

Tiros 1 - Pass Details

Date: 18 April 2024
Orbit: 624 x 657 km, 48.4° (Epoch: 20 May)

Event Time Altitude Azimuth Distance (km) Brightness Sun altitude
Rises 23:43:56 0° 241° (WSW) 2,921 - -30.1°
Reaches altitude 10° 23:46:15 10° 239° (WSW) 2,010 - -30.0°
Maximum altitude 23:50:51 70° 156° (SSE) 672 - -29.6°
Exits shadow 23:53:17 27° 79° (E) 1,208 8.8 -29.5°
Drops below altitude 10° 23:55:26 10° 74° (ENE) 2,001 10.1 -29.3°
Sets 23:57:45 0° 72° (ENE) 2,907 11.1 -29.1°
